Showing default

DASH 1, 589

Orbit data source: Space-Track

DASH 1, 589 is a payload satellite owned by USAF SSD (US) in LEO that was launched on Thu, 09 May 1963 UTC via an ATLAS AGENA B launch vehicle from the Air Force Western Test Range (AFWTR). Payload-class satellites include a variety of spacecraft equipped with specific instruments for various scientific and technological missions. These include communications satellites like Starlink; space stations such as the ISS; scientific satellites like the Hubble; Earth observation satellites from companies like Planet Labs, Umbra, and HawkEye 360; GPS; miniature CubeSats for education and research; and military/defense satellites.

Loading next visibility...
Identifier
589, 1963-014D
Orbit
LEO
Country
Flag of USUS
Related business
Manufacturer
MITLL?
Mission
Spacecraft
Bus & Motor
DASH, Unknown motor
Mass
1 kg wet, 1 kg dry
Launch date (UTC)
1963-05-09 (63 years ago)
Launch vehicle
ATLAS AGENA B
Launch site
Air Force Western Test Range (AFWTR)
Object type
Payload
Rocket body
Debris
Shape & HBR
Unknown
Radar Cross Section
Large (>1 m²)

Expand to show TLE details & history
Last TLE update: 16 hours ago

TLE from 16 hours ago
0 DASH 1
1 00589U 63014D   26033.49713076 -.00000007  00000-0 -45033-2 0  9993
2 00589  87.3449 203.2819 0068207  99.1276 261.7304  8.65626647982160
Epoch: 2026-02-02T11:55Z
TLE epoch observation values (Epoch: 2026-02-02T11:55:52.097Z)
Latitude
0.00006°
Longitude
-108.37674°
Altitude
3,653.884 km
Speed
6.301 km/s
True Right ascension
13h 33m 07s
True Declination
0° 00' 00"
Sunlit
Object was in daylight at epoch
Visualization orbit readout
Latitude
Unknown
Longitude
Unknown
Altitude
Unknown
Speed
Unknown
Apparent Right ascension
Unknown
Apparent Declination
Unknown
Sunlit
N/A
Visualization observer readout
Local Sidereal Time
05:46:31
Azimuth
Unknown
Elevation
Unknown
Doppler factor
Unknown
Orbital elements
Apogee altitude
3,707.558 km
Perigee altitude
3,570.907 km
Semi-major axis
10,017.37 km
Eccentricity
0.00682
Inclination
87.3449°
RAAN
203.2819°
Arg. of periapsis
99.1276°
True anomaly
260.9579°
Mean anomaly
261.7304°
Eccentric anomaly
261.34405°
Mean motion
2.16477 °/min
Orbital period
166.3 mins
BSTAR
-0.0045033

Documentation

Showing up to 5 results
|